Regional Weather Roundup
Issued by NWS

Home | Current Version | Previous Version | Text Only | Print | Product List | Glossary Off
Versions: 1 2 3 4 5 6 7 8 9 10 11 12 13 14 15 16 17 18 19 20 21 22 23 24 25 26 27 28 29 30 31 32 33 34 35 36 37 38 39 40 41 42 43 44 45 46 47 48 49 50

000
ASUS43 KLOT 220903
RWRIL

ILLINOIS REGIONAL WEATHER ROUNDUP
NATIONAL WEATHER SERVICE CHICAGO/ROMEOVILLE IL
300 AM CST MON JAN 22 2018

NOTE: "FAIR" INDICATES FEW OR NO CLOUDS BELOW 12,000 FEET WITH NO
SIGNIFICANT WEATHER AND/OR OBSTRUCTIONS TO VISIBILITY.

* THESE STATIONS ARE NOT UNDER NWS QUALITY CONTROL. THEY ALSO MAY NOT
  REPORT WEATHER SUCH AS PRECIPITATION OR FOG.

ILZ001-002-007-009-015-016-024-221000-
NORTHWEST ILLINOIS

CITY           SKY/WX    TMP DP  RH WIND       PRES   REMARKS
MOLINE         LGT RAIN  51  50  96 N9        29.58S FOG
STERLING*        N/A    N/A N/A N/A MISG        N/A
SAVANNA*       LGT RAIN  40  40  99 NE8       29.66F
$$

ILZ003-004-008-010-011-017-018-221000-
NORTH CENTRAL ILLINOIS

CITY           SKY/WX    TMP DP  RH WIND       PRES   REMARKS
ROCKFORD       DRZL/FOG  41  41 100 E12       29.72F VSB 1/2
FREEPORT*      FOG       37  37 100 NE14      29.71F VSB 1   WCI  28
ROCHELLE*      FOG       44  44 100 E6        29.68F VSB 1/4
DE KALB*       RAIN      45  45 100 SE10      29.70F VSB 1/4
PERU*          HVY RAIN  47  47  99 SE10      29.67F VSB 1/2
$$

ILZ005-006-012>014-019>023-221000-
NORTHEAST ILLINOIS

CITY           SKY/WX    TMP DP  RH WIND       PRES   REMARKS
CHICAGO-OHARE  FOG       46  45  96 SE7       29.73F VSB 1/4
CHICAGO-MIDWAY LGT RAIN  47  47 100 SE7       29.74F FOG
AURORA         FOG       46  46 100 SE10      29.71F VSB 1/4
LANSING*       RAIN      48  48 100 SE7       29.75F
JOLIET*        CLOUDY    48  48 100 SE7       29.72F FOG
WAUKEGAN       FOG       38  38 100 E7        29.76F VSB 1/4 WCI  33
DUPAGE AIRPORT FOG       47  47 100 SE8       29.71F VSB 1/4
KANKAKEE*      CLOUDY   N/A N/A N/A SE6       29.73F FOG
WHEELING       FOG       41  41 100 N8        29.75F VSB 1/4
MORRIS*        FOG       47  46  99 SE8       29.69F VSB 1/2
NORTHERLY ISL    N/A     37  36  96 N1          N/A
$$

LMZ740>746-221000-
SOUTHERN LAKE MICHIGAN

STATION/POSITION SKY/WX   TEMP    WIND        PRES    VSBY  WAVE
                          AIR SEA DIR/SP/G                  HT/PER
                          (F)     (DEG/KT/KT) (MB)    (MI)  (FT/S)
HARRISON CRIB              42     120/ 15/ 16   N/A
BURNHAM HARBOR             38      CALM  /  2   N/A
CALUMET HARBOR             42     100/  6/  6 1007.4F
BURNS HARBOR               50     160/ 14/ 20 1008.8F
MICHIGAN CITY              48     140/ 10/ 11   N/A
$$

ILZ025>027-034>036-040-047-049-050-058-095>099-221000-
WEST-CENTRAL ILLINOIS

CITY           SKY/WX    TMP DP  RH WIND       PRES   REMARKS
QUINCY         RAIN      51  50  96 SE9       29.58F FOG
MACOMB*        LGT RAIN  51  51 100 SE9       29.62F VSB 3/4
JACKSONVILLE*  RAIN      53  52  96 E7        29.59F
PITTSFIELD*    HVY RAIN  54  54  99 CALM      29.61F
$$

ILZ028>032-037-038-041>044-048-051>054-059>061-221000-
CENTRAL ILLINOIS

CITY           SKY/WX    TMP DP  RH WIND       PRES   REMARKS
BLOOMINGTON    CLOUDY    49  49 100 SE14      29.67F
DECATUR        FAIR      52  49  89 S17G25    29.66F
PEORIA         LGT RAIN  53  53 100 SE10      29.64F FOG
LACON*         LGT RAIN  51  51 100 S9        29.65F
LINCOLN*       LGT RAIN  52  52 100 S9        29.64F
SPRINGFIELD    LGT RAIN  55  52  89 SE16      29.61F
TAYLORVILLE    FAIR      53  49  86 SE15G22   29.63F
$$

ILZ033-039-045-046-055>057-062-063-221000-
EAST-CENTRAL ILLINOIS

CITY           SKY/WX    TMP DP  RH WIND       PRES   REMARKS
CHAMPAIGN      FAIR      51  47  86 S18       29.71F
DANVILLE*      FAIR      52  47  83 S14G20    29.72F
RANTOUL*       FAIR      49  49  99 S12       29.71F
MATTOON        FAIR      51  46  83 S14       29.71F
$$

ILZ079-100>102-221000-
SOUTHWEST ILLINOIS

CITY           SKY/WX    TMP DP  RH WIND       PRES   REMARKS
ALTON          RAIN      54  53  99 S16G29    29.66R
BELLEVILLE     CLOUDY    59  50  72 SW12      29.63F
CAHOKIA*       HVY RAIN  56  53  90 SW8       29.66R FOG
SPARTA*        CLOUDY    58  51  77 S15G22    29.65F
$$

ILZ064>066-069>071-074>076-080>082-084>086-088>090-092>094-221000-
SOUTH-CENTRAL ILLINOIS

CITY           SKY/WX    TMP DP  RH WIND       PRES   REMARKS
CARBONDALE     FAIR      57  48  72 S17       29.69F
CAIRO*         CLOUDY    58  47  66 S20G29    29.72F
EFFINGHAM*     FAIR      51  49  90 SE12      29.72F
MARION         FAIR      58  46  65 S16       29.72F
MT. VERNON     FAIR      56  47  71 SE14      29.70F
CENTRALIA*     CLOUDY    57  49  74 S20G29    29.67F
SALEM*         FAIR      59  47  65 SE20      29.68F
METROPOLIS*    FAIR      60  46  61 S15G22    29.77F
$$

ILZ067-068-072-073-078-083-087-091-221000-
SOUTHEAST ILLINOIS

CITY           SKY/WX    TMP DP  RH WIND       PRES   REMARKS
LAWRENCEVILLE  FAIR      51  44  77 S17       29.79F
FLORA*         FAIR      54  47  78 S15       29.73F
FAIRFIELD*     FAIR      55  46  71 SE12G18   29.73F
HARRISBURG*    FAIR      56  47  71 S20G26    29.75F
ROBINSON*      MOCLDY    52  46  79 S14       29.78F
CARMI*         FAIR      47  43  85 SE13      29.78F
$$

ABBREVIATIONS USED IN REMARKS
   TC - TEMPERATURE IN CELSIUS
  WCI - WIND CHILL INDEX
   HX - HEAT INDEX
  VSB - VISIBILITY
$$





USA.gov is the U.S. government's official web portal to all federal, state and local government web resources and services.